El Paso, TX

11:21 AM MST on December 07, 2016 (GMT -0700)
El Paso International

Weather History for KELP - December, 2012

Change the Weather History Date:

Sunday, December 30, 2012

  Actual Average Record
Temperature  
Mean Temperature 42 °F 44 °F  
Max Temperature 49 °F 56 °F 74 °F (1973)
Min Temperature 35 °F 32 °F 9 °F (1880)
Degree Days  
Heating Degree Days 23 21  
Month to date heating degree days 517 604  
Since 1 July heating degree days 777 1046  
Cooling Degree Days 0 0  
Month to date cooling degree days 0 0  
Year to date cooling degree days 2876 2331  
Moisture  
Dew Point 16 °F    
Average Humidity 40    
Maximum Humidity 53    
Minimum Humidity 26    
Precipitation  
Precipitation T in 0.02 in 0.50 in (1884)
Month to date precipitation 0.10 0.76  
Year to date precipitation 6.05 9.69  
Snow  
Snow 0.00 in - - ()
Month to date snowfall 0.0  
Since 1 July snowfall 0.0  
Snow Depth 0.00 in    
Sea Level Pressure  
Sea Level Pressure 29.92 in    
Wind  
Wind Speed 6 mph (North)    
Max Wind Speed 15 mph    
Max Gust Speed 21 mph    
Visibility 10 miles    
Events Rain    
T = Trace of Precipitation, MM = Missing Value Source: NWS Daily Summary

Daily Weather History Graph

Daily Weather History Graph

Search for Another Location

Airport or City:

Trip Planner

Search our weather history database for the weather conditions in past years. The results will help you decide how hot, cold, wet, or windy it might be!

Date:

Astronomy

Dec. 30, 2012 Rise Set
Actual Time 7:05 AM MST 5:11 PM MST
Civil Twilight 6:38 AM MST 5:38 PM MST
Nautical Twilight 6:07 AM MST 6:08 PM MST
Astronomical Twilight 5:38 AM MST 6:38 PM MST
Moon 7:35 PM MST (12/30) 8:24 AM MST (12/30)
Length of Visible Light 11h 00m
Length of Day
10h 06m
Waning Gibbous, 95% of the Moon is Illuminated
Dec 30
Waning Gibbous
Jan 4
Last Quarter
Jan 11
New
Jan 18
First Quarter
Jan 26
Full

Hourly Weather History & Observations

Time (MST) Temp. Windchill Dew Point Humidity Pressure Visibility Wind Dir Wind Speed Gust Speed Precip Events Conditions
12:51 AM 37.0 °F 31.0 °F 12.9 °F 37% 30.04 in 10.0 mi North 8.1 mph - N/A   Overcast
1:51 AM 37.0 °F 31.0 °F 12.9 °F 37% 30.02 in 10.0 mi NNE 8.1 mph - N/A   Scattered Clouds
2:51 AM 37.0 °F 31.6 °F 12.9 °F 37% 30.00 in 10.0 mi North 6.9 mph - N/A   Mostly Cloudy
3:51 AM 36.0 °F 30.3 °F 12.9 °F 39% 30.00 in 10.0 mi NNW 6.9 mph - N/A   Mostly Cloudy
4:51 AM 36.0 °F 29.6 °F 12.9 °F 39% 29.99 in 10.0 mi North 8.1 mph - N/A   Overcast
5:51 AM 35.1 °F 30.1 °F 12.9 °F 40% 30.00 in 10.0 mi North 5.8 mph - N/A   Overcast
6:51 AM 35.1 °F 30.1 °F 12.9 °F 40% 30.01 in 10.0 mi North 5.8 mph - N/A   Overcast
7:51 AM 36.0 °F 30.3 °F 14.0 °F 41% 30.01 in 10.0 mi North 6.9 mph - N/A   Overcast
8:51 AM 37.9 °F 34.4 °F 14.0 °F 38% 30.02 in 10.0 mi North 4.6 mph - N/A   Overcast
9:51 AM 39.9 °F 37.8 °F 15.1 °F 36% 30.02 in 10.0 mi North 3.5 mph - N/A   Overcast
10:51 AM 42.8 °F 40.1 °F 15.8 °F 34% 30.05 in 10.0 mi NNW 4.6 mph - N/A   Mostly Cloudy
11:51 AM 45.0 °F 43.5 °F 16.0 °F 31% 29.95 in 10.0 mi North 3.5 mph - N/A   Overcast
12:51 PM 46.0 °F - 16.0 °F 30% 29.91 in 10.0 mi Calm Calm - N/A   Overcast
1:51 PM 48.0 °F - 16.0 °F 28% 29.86 in 10.0 mi North 6.9 mph - N/A   Overcast
2:51 PM 48.0 °F - 16.0 °F 28% 29.82 in 10.0 mi NNE 6.9 mph - N/A   Overcast
3:51 PM 48.0 °F - 16.0 °F 28% 29.82 in 10.0 mi NNE 9.2 mph - N/A   Overcast
4:51 PM 48.0 °F - 17.1 °F 29% 29.83 in 10.0 mi North 10.4 mph - N/A   Overcast
5:51 PM 46.0 °F 41.9 °F 19.0 °F 34% 29.85 in 10.0 mi North 8.1 mph - 0.00 in   Overcast
6:51 PM 45.0 °F 40.1 °F 17.1 °F 33% 29.82 in 10.0 mi North 9.2 mph - N/A   Overcast
7:51 PM 44.1 °F 40.1 °F 17.1 °F 34% 29.83 in 10.0 mi NNW 6.9 mph - N/A   Overcast
8:51 PM 43.0 °F - 18.0 °F 37% 29.81 in 10.0 mi Calm Calm - N/A   Overcast
9:51 PM 43.0 °F 41.3 °F 26.1 °F 51% 29.80 in 10.0 mi ENE 3.5 mph - N/A   Overcast
10:51 PM 39.2 °F 35.9 °F 24.8 °F 56% 29.90 in 10.0 mi North 4.6 mph - N/A Rain Light Rain
11:51 PM 44.1 °F 37.1 °F 28.0 °F 53% 29.83 in 10.0 mi West 15.0 mph 18.4 mph 0.00 in   Mostly Cloudy